Weather History for East Midlands, United Kingdom

Change the Weather History Date:

Thursday, August 1, 2013

  Actual Average Record
Temperature  
Mean Temperature 74 °F -  
Max Temperature 87 °F 68 °F 87 °F (2013)
Min Temperature 62 °F 53 °F 51 °F (2004)
Cooling Degree Days 10    
Growing Degree Days 24 (Base 50)    
Moisture  
Dew Point 63 °F    
Average Humidity 77    
Maximum Humidity 94    
Minimum Humidity 45    
Precipitation  
Precipitation 0.00 in - - ()
Sea Level Pressure  
Sea Level Pressure 29.78 in    
Wind  
Wind Speed 10 mph ()    
Max Wind Speed 18 mph    
Max Gust Speed -    
Visibility 6.2 miles    
Events      
Averages and records for this station are not official NWS values.
T = Trace of Precipitation, MM = Missing Value Source: Averaged Metar Reports

Daily Weather History Graph

Daily Weather History Graph

Search for Another Location

Airport:

Trip Planner

Search our weather history database for the weather conditions in past years. The results will help you decide how hot, cold, wet, or windy it might be!

Date:

Astronomy

Aug. 01, 2013 Rise Set
Actual Time 5:23 AM BST 8:58 PM BST
Civil Twilight 4:41 AM BST 9:40 PM BST
Nautical Twilight 3:42 AM BST 10:38 PM BST
Astronomical Twilight 2:11 AM BST 12:06 AM BST
Moon 12:47 AM BST (8/1) 4:59 PM BST (8/1)
Length of Visible Light 16h 59m
Length of Day
15h 34m
Waning Crescent, 25% of the Moon is Illuminated
Aug 1
Waning Crescent
Aug 6
New
Aug 14
First Quarter
Aug 21
Full
Aug 28
Last Quarter

Hourly Weather History & Observations

Time (BST) Temp. Heat Index Dew Point Humidity Pressure Visibility Wind Dir Wind Speed Gust Speed Precip Events Conditions
12:20 AM 64.4 °F - 62.6 °F 94% 29.89 in 6.2 mi SSW 16.1 mph - N/A   Mostly Cloudy
12:50 AM 64.4 °F - 60.8 °F 88% 29.89 in 6.2 mi SW 13.8 mph - N/A   Mostly Cloudy
1:20 AM 62.6 °F - 60.8 °F 94% 29.86 in 6.2 mi SSW 9.2 mph - N/A   Scattered Clouds
1:50 AM 64.4 °F - 60.8 °F 88% 29.86 in 6.2 mi SSW 15.0 mph - N/A   Scattered Clouds
2:20 AM 64.4 °F - 60.8 °F 88% 29.86 in 6.2 mi SSW 13.8 mph - N/A   Scattered Clouds
2:50 AM 64.4 °F - 60.8 °F 88% 29.86 in 6.2 mi SSW 12.7 mph - N/A   Scattered Clouds
3:20 AM 62.6 °F - 60.8 °F 94% 29.86 in 6.2 mi SSW 9.2 mph - N/A   Partly Cloudy
3:50 AM 62.6 °F - 60.8 °F 94% 29.86 in 6.2 mi SSW 5.8 mph - N/A   Partly Cloudy
4:20 AM 62.6 °F - 60.8 °F 94% 29.86 in 6.2 mi South 4.6 mph - N/A   Scattered Clouds
4:50 AM 62.6 °F - 60.8 °F 94% 29.86 in 6.2 mi SSW 8.1 mph - N/A   Scattered Clouds
5:20 AM 62.6 °F - 60.8 °F 94% 29.86 in 6.2 mi SSW 8.1 mph - N/A   Partly Cloudy
5:50 AM 62.6 °F - 60.8 °F 94% 29.86 in 6.2 mi SSW 9.2 mph - N/A   Scattered Clouds
6:20 AM 62.6 °F - 60.8 °F 94% 29.86 in 6.2 mi South 8.1 mph - N/A   Scattered Clouds
6:50 AM 62.6 °F - 60.8 °F 94% 29.86 in 6.2 mi SSW 9.2 mph - N/A   Scattered Clouds
7:20 AM 62.6 °F - 60.8 °F 94% 29.86 in 6.2 mi South 6.9 mph - N/A   Scattered Clouds
7:50 AM 64.4 °F - 60.8 °F 88% 29.86 in 6.2 mi SSE 5.8 mph - N/A   Scattered Clouds
8:20 AM 64.4 °F - 62.6 °F 94% 29.86 in 6.2 mi ESE 4.6 mph - N/A   Mostly Cloudy
8:50 AM 66.2 °F - 62.6 °F 88% 29.83 in 6.2 mi South 9.2 mph - N/A   Mostly Cloudy
9:20 AM 66.2 °F - 62.6 °F 88% 29.83 in 6.2 mi South 9.2 mph - N/A   Mostly Cloudy
9:50 AM 68.0 °F - 64.4 °F 88% 29.83 in 6.2 mi SSE 9.2 mph - N/A   Mostly Cloudy
10:20 AM 69.8 °F - 66.2 °F 88% 29.83 in 6.2 mi SE 10.4 mph - N/A   Mostly Cloudy
10:50 AM 71.6 °F - 66.2 °F 83% 29.80 in 6.2 mi SSE 10.4 mph - N/A   Mostly Cloudy
11:20 AM 71.6 °F - 64.4 °F 78% 29.80 in 6.2 mi SE 11.5 mph - N/A   Mostly Cloudy
11:50 AM 75.2 °F - 66.2 °F 73% 29.77 in 6.2 mi SSE 11.5 mph - N/A   Scattered Clouds
12:20 PM 77.0 °F - 66.2 °F 69% 29.77 in 6.2 mi SSE 12.7 mph - N/A   Scattered Clouds
12:50 PM 78.8 °F - 66.2 °F 65% 29.77 in 6.2 mi SSE 12.7 mph - N/A   Scattered Clouds
3:20 PM 86.0 °F 87.3 °F 64.4 °F 48% 29.71 in 6.2 mi South 13.8 mph - N/A   Partly Cloudy
4:20 PM 87.8 °F 89.4 °F 64.4 °F 46% 29.68 in 6.2 mi South 15.0 mph - N/A   Partly Cloudy
4:50 PM 86.0 °F 88.2 °F 66.2 °F 51% 29.68 in - South 16.1 mph - N/A   Clear
5:20 PM 86.0 °F 87.3 °F 64.4 °F 48% 29.65 in - South 18.4 mph - N/A   Clear
5:50 PM 86.0 °F 87.3 °F 64.4 °F 48% 29.65 in - South 15.0 mph - N/A   Clear
6:20 PM 86.0 °F 86.6 °F 62.6 °F 45% 29.65 in - South 17.3 mph - N/A   Clear
6:50 PM 86.0 °F 86.6 °F 62.6 °F 45% 29.65 in - South 15.0 mph - N/A   Clear
7:50 PM 82.4 °F 83.9 °F 64.4 °F 54% 29.65 in - South 8.1 mph - N/A   Clear
8:20 PM 80.6 °F 82.3 °F 64.4 °F 58% 29.65 in - South 8.1 mph - N/A   Clear
8:50 PM 80.6 °F 82.3 °F 64.4 °F 58% 29.65 in - South 5.8 mph - N/A   Clear
9:50 PM 77.0 °F - 64.4 °F 65% 29.65 in - South 6.9 mph - N/A   Clear
10:50 PM 75.2 °F - 64.4 °F 69% 29.65 in - SSW 9.2 mph - N/A   Clear
11:20 PM 73.4 °F - 64.4 °F 73% 29.68 in - SSW 9.2 mph - N/A   Clear